Theta_e
326 323 322 322 321 321 321 320 319 319 317 317 317 317 315 313 313 315 315 316 319 318 319 318 317 321 322 322 321 320 320 318 314 313 312 310 309 308 310 311 310 309 308
326 323 320 322 321 321 319 319 319 318 316 315 315 314 313 313 314 315 315 315 318 319 323 323 319 322 323 323 322 321 321 316 315 313 311 310 309 308 310 310 310 310 308
325 323 320 320 321 320 320 319 318 318 316 314 315 316 316 316 317 315 315 316 321 321 323 323 321 322 323 323 323 323 321 318 316 314 312 309 310 311 312 311 310 309 309
325 325 321 319 318 318 319 318 319 320 318 317 317 317 316 316 315 316 316 318 320 320 320 322 323 322 323 323 323 323 321 319 317 315 313 310 309 309 310 310 310 309 308
326 325 324 322 318 317 317 316 318 318 315 314 314 315 315 315 315 316 316 318 320 316 322 324 320 321 324 324 323 323 320 319 317 318 316 310 311 310 309 311 311 309 307
326 326 325 324 321 317 317 316 316 316 316 318 315 314 314 314 315 315 316 315 313 316 320 323 322 323 322 322 322 322 321 320 319 318 316 315 314 310 310 310 310 309 309
325 325 325 324 324 318 317 316 315 316 317 317 318 319 318 319 319 315 318 320 319 319 320 323 324 323 323 322 323 323 321 321 319 319 317 317 315 311 310 310 310 309 308
325 325 325 325 325 324 322 319 317 316 316 317 319 319 319 320 318 318 322 324 321 319 324 325 325 323 322 323 322 323 322 321 319 318 317 317 313 311 310 309 308 307 305
324 325 325 325 325 325 324 323 324 323 320 318 318 319 319 321 322 323 324 325 323 321 321 323 323 323 323 323 322 323 322 321 319 318 317 315 311 309 308 307 306 302 303
325 325 325 325 325 325 325 325 324 324 323 324 322 323 324 324 324 323 324 325 323 322 325 324 324 322 321 322 323 321 320 320 319 318 315 310 309 308 307 306 304 303 303
326 325 324 325 325 325 325 325 325 326 325 325 325 324 325 325 325 326 326 326 324 325 322 323 321 322 320 322 321 321 319 318 318 315 311 308 307 308 306 305 304 303 302
323 323 324 325 325 325 325 326 326 326 326 326 326 326 326 326 327 326 326 325 325 324 315 318 321 322 323 323 320 320 319 318 316 311 308 307 307 305 304 304 304 301 301
324 325 325 325 325 325 325 325 325 326 326 327 327 327 325 322 327 326 324 324 326 324 318 319 325 323 321 320 320 318 317 314 312 308 307 306 305 304 303 302 300 300 300
324 324 324 324 324 325 326 327 327 327 326 326 327 326 324 321 323 327 327 324 322 325 324 324 323 321 319 318 317 315 314 312 308 306 305 304 303 303 301 299 299 299 298
323 323 323 323 324 322 323 324 326 328 328 327 327 327 326 324 327 328 327 325 324 324 324 322 320 317 315 314 314 313 311 310 306 305 303 302 301 300 300 297 297 297 297
320 321 325 323 324 323 323 323 326 329 331 329 329 329 329 329 327 326 327 325 324 322 319 318 316 314 314 313 312 309 309 307 304 302 301 300 299 299 297 296 296 296 295
320 320 323 324 325 325 325 325 327 329 330 330 331 329 328 326 327 326 323 321 319 317 316 314 312 312 312 311 309 308 305 302 301 300 299 299 298 296 295 295 294 293 293
320 320 320 323 325 327 328 328 329 330 330 329 328 327 326 324 323 322 320 319 315 311 311 311 311 311 309 308 305 302 300 299 299 298 297 296 295 294 294 293 291 290 289
320 320 321 321 326 328 329 329 328 328 328 327 325 324 323 321 318 316 314 312 312 311 309 307 306 305 304 301 299 298 298 298 297 297 295 294 293 293 291 289 286 284 284
319 320 322 326 328 328 328 328 328 326 325 324 323 321 319 317 314 313 311 310 309 306 304 302 300 299 299 297 297 297 297 297 295 294 294 294 292 288 284 284 284 283 283
321 322 323 326 328 329 329 328 327 324 322 321 319 316 313 312 310 309 308 307 304 303 301 300 299 299 298 298 297 296 296 295 294 293 292 287 284 283 283 283 282 282 281
322 323 324 327 327 327 326 324 322 320 318 315 313 311 309 308 307 306 304 303 302 301 300 298 298 297 297 297 296 295 294 293 292 289 285 283 282 282 282 281 281 281 280
321 322 323 322 321 320 320 319 317 315 313 311 309 308 307 306 305 304 303 301 300 300 299 298 298 296 296 295 293 293 292 290 287 284 282 282 281 281 280 280 280 279 279
320 320 320 318 316 315 315 314 313 311 310 308 307 306 305 304 302 301 299 298 298 297 295 295 294 294 293 293 291 290 288 285 282 281 281 280 280 280 279 279 278 278 277
318 318 317 315 313 312 311 310 310 309 308 306 305 304 302 300 298 298 298 297 296 295 295 294 293 292 290 289 288 285 282 281 281 280 280 279 279 279 278 278 277 277 276
315 314 313 312 311 310 309 308 307 307 306 305 302 300 299 298 296 295 294 293 293 292 290 289 288 287 285 283 281 281 281 280 280 279 279 278 278 277 277 276 276 275 275
Wind_Speed
17 11 15 18 20 22 26 35 39 41 42 44 45 46 48 42 36 39 40 21 19 20 22 20 20 24 23 21 21 23 24 24 21 19 18 18 18 18 17 18 17 17 17
22 17 17 20 23 25 28 34 38 39 42 42 40 43 40 39 36 44 39 26 21 25 24 22 23 28 26 27 24 25 26 24 23 24 21 19 21 22 22 22 21 20 21
31 26 24 24 24 28 29 31 35 36 37 38 38 33 33 36 32 44 41 32 28 27 26 27 28 30 30 30 29 28 27 26 27 26 23 10 14 13 18 24 23 24 23
36 33 31 28 28 29 29 32 35 35 33 37 39 37 39 42 44 40 35 35 35 31 32 32 30 32 33 31 30 28 28 27 29 29 27 27 23 16 15 20 18 21 25
44 42 38 34 32 30 32 34 37 38 35 36 39 39 45 45 42 39 40 36 37 38 32 31 29 33 35 35 33 31 32 32 34 29 34 30 29 28 26 21 24 17 19
50 46 41 36 35 36 36 39 41 42 41 38 40 46 48 46 42 40 39 36 37 37 33 30 32 32 37 35 35 34 33 33 32 32 31 33 32 31 30 28 29 29 32
47 49 45 44 41 43 43 43 48 47 45 45 45 46 46 44 42 41 39 37 35 36 36 36 30 33 36 35 37 37 34 31 33 28 32 31 34 34 32 31 33 33 33
46 49 50 47 45 45 45 46 46 47 47 47 46 45 44 44 45 44 43 41 40 37 33 36 33 29 28 33 38 36 34 29 32 28 32 30 31 32 34 35 33 29 26
45 50 50 49 47 46 47 48 48 47 47 49 48 46 45 47 47 45 46 44 41 34 39 30 31 27 30 31 37 38 34 33 33 29 30 28 27 29 32 30 24 20 25
42 49 49 50 49 47 45 47 49 50 51 51 50 49 48 47 46 46 45 40 39 40 32 30 34 36 35 34 39 38 35 35 34 30 29 27 29 29 32 28 23 21 26
40 45 46 49 50 48 47 48 49 51 52 51 49 50 50 50 49 49 46 43 43 39 28 34 34 38 38 38 38 35 34 34 31 29 28 28 30 29 29 26 27 30 27
31 36 42 43 47 49 51 49 50 51 53 52 45 42 39 39 41 42 46 44 31 26 34 41 33 33 36 34 32 32 33 32 26 25 27 28 29 26 23 23 26 25 24
21 21 23 32 38 38 41 47 50 54 55 47 43 40 33 31 44 40 41 36 39 38 39 34 30 25 27 28 27 27 25 21 21 23 26 27 24 22 24 21 22 21 23
24 26 26 26 25 25 23 26 33 38 46 49 50 48 37 34 38 37 39 43 39 38 41 31 25 23 23 22 22 21 19 20 22 23 22 21 21 23 21 17 18 22 26
27 29 28 24 22 20 20 21 22 27 43 45 43 46 45 34 31 36 35 32 38 33 29 27 25 21 20 20 20 20 18 19 18 19 18 18 18 18 22 19 23 26 29
26 30 30 26 25 22 21 21 18 22 33 40 38 36 34 34 30 28 27 26 27 26 24 22 21 21 22 20 19 18 16 16 16 16 16 16 16 23 21 23 23 20 23
31 30 34 33 30 27 28 25 22 21 25 26 30 27 29 28 28 29 26 25 23 22 20 20 21 21 20 20 19 17 17 15 15 15 17 20 23 21 24 24 23 24 24
33 29 34 34 32 31 29 24 22 23 26 26 28 31 31 30 27 25 23 22 22 19 17 18 19 20 19 17 18 18 16 15 17 19 19 19 20 22 24 25 28 30 31
34 34 35 34 37 34 31 27 24 23 22 24 25 25 24 22 21 21 21 19 18 17 17 16 16 16 18 17 17 16 16 17 18 17 17 18 21 23 26 28 29 30 30
33 39 35 33 35 33 31 29 25 24 23 21 20 19 19 17 18 17 18 17 16 16 15 16 15 16 17 17 15 15 15 15 15 17 19 21 23 23 23 26 28 30 31
32 28 29 33 34 33 31 28 25 23 21 22 22 21 19 17 16 16 16 16 17 17 17 17 16 16 15 16 17 15 14 15 16 18 20 19 20 22 24 26 24 25 28
30 30 32 32 33 32 29 26 24 24 24 23 21 20 18 17 17 17 18 18 18 17 18 20 22 21 20 18 17 15 15 16 17 17 18 19 20 22 22 22 22 24 26
29 29 31 32 30 28 25 25 25 25 24 22 20 18 16 15 14 15 17 17 17 18 19 20 21 21 20 18 17 16 16 17 17 18 19 20 20 19 18 19 21 22 24
33 31 32 30 28 26 24 22 24 23 21 19 18 18 18 18 18 18 17 17 18 18 18 18 18 18 17 15 14 15 15 17 17 17 16 17 18 17 18 19 20 21 22
31 31 31 30 28 26 24 23 22 22 20 20 21 20 19 19 20 18 17 18 15 12 12 14 14 14 15 15 15 16 17 17 17 17 17 17 17 18 18 19 20 21 22
31 29 28 28 27 25 24 22 22 22 23 22 20 20 19 19 18 19 19 16 13 12 11 11 12 13 14 16 16 16 17 17 17 16 16 18 18 19 20 21 23 23 24
Wind_Direction
200 204 192 194 188 194 195 190 184 188 189 190 194 193 190 196 197 194 199 198 206 220 224 227 233 220 218 231 229 229 240 238 231 234 243 246 246 251 263 276 279 278 282
199 200 196 199 197 193 194 192 195 198 194 199 200 197 197 204 213 196 204 215 222 229 231 241 230 222 221 231 236 238 239 231 228 226 236 241 244 251 259 258 264 272 275
197 197 198 200 198 194 190 190 189 188 191 193 195 201 204 202 197 199 207 214 229 227 234 238 231 228 230 230 237 242 242 232 232 238 239 231 239 248 255 251 253 260 264
206 199 197 201 205 199 192 190 190 190 190 193 195 201 195 193 197 201 208 224 228 231 236 239 236 232 233 235 239 246 244 235 234 236 245 242 248 259 251 242 244 256 254
206 204 203 202 204 199 197 193 194 196 191 190 196 200 196 203 205 213 221 226 229 235 239 236 244 239 236 237 239 240 237 234 234 244 244 241 248 253 240 245 254 263 261
207 211 211 205 204 201 198 197 195 195 197 197 196 200 204 210 215 221 229 232 233 232 238 243 246 246 243 240 243 240 236 241 245 253 244 251 254 239 241 244 259 273 282
202 206 209 207 206 204 203 202 202 203 202 205 208 210 216 220 222 224 227 231 233 234 237 239 247 244 245 249 244 245 239 246 246 256 248 264 255 247 248 255 269 277 286
208 210 213 214 211 209 209 209 210 214 214 215 217 218 221 224 226 230 233 237 237 241 246 241 239 246 258 257 251 248 241 249 247 258 255 267 248 247 246 260 268 275 268
212 217 219 220 219 215 214 215 215 219 221 223 222 221 223 226 229 232 236 242 240 241 242 240 245 254 259 263 257 247 242 248 245 268 264 257 249 250 258 262 252 254 272
208 218 221 223 225 226 225 222 223 224 226 224 225 226 227 229 233 239 243 246 237 240 240 252 247 263 254 250 245 235 238 242 249 262 252 246 250 257 258 241 237 255 269
216 217 222 227 228 229 230 232 231 230 230 230 232 234 234 236 240 243 244 245 233 232 249 257 262 260 257 253 234 238 236 242 258 250 242 242 249 258 243 242 249 261 269
230 228 225 226 232 230 230 232 236 236 238 236 230 230 238 241 240 242 250 253 227 228 256 256 258 255 252 237 236 243 248 254 251 242 239 244 255 244 240 249 263 274 268
191 189 203 219 231 233 237 238 240 243 243 227 224 226 235 258 247 247 248 247 238 232 239 254 249 238 235 244 246 245 246 247 247 240 242 250 247 244 249 262 270 268 276
191 191 188 188 193 206 216 227 240 247 238 231 229 228 231 248 243 247 246 246 238 245 236 240 229 233 238 235 235 238 242 244 235 236 246 245 237 251 250 271 273 276 277
201 212 207 203 199 209 219 223 227 231 234 235 238 237 235 235 239 240 240 235 236 226 218 222 229 226 225 232 234 235 235 239 226 234 229 232 248 244 255 284 276 273 276
226 219 212 214 214 219 230 240 230 218 227 230 230 232 225 228 226 223 211 204 203 211 217 222 223 226 229 228 226 229 227 217 217 213 223 236 256 257 264 275 272 269 275
239 229 215 216 218 220 230 231 226 216 211 214 218 221 215 210 202 192 194 202 206 209 212 214 216 219 221 220 226 219 203 198 203 214 222 236 258 267 272 275 272 273 276
239 231 223 214 218 219 218 221 210 200 195 196 192 188 185 184 185 190 197 203 210 210 209 207 206 208 206 202 192 184 188 194 206 219 243 257 263 266 273 277 281 283 285
232 209 210 214 211 209 212 214 204 202 200 192 189 189 192 194 188 187 192 196 201 199 195 191 190 188 184 182 189 190 196 209 225 236 249 254 266 275 279 283 286 290 292
230 205 207 203 206 207 212 210 204 200 203 206 205 200 199 197 193 196 194 195 194 191 182 175 174 177 183 183 194 202 207 224 234 240 253 265 272 276 280 287 294 297 301
198 197 206 206 206 208 207 208 211 212 216 211 207 203 200 203 204 202 196 188 180 177 175 179 175 181 192 201 212 219 227 235 245 257 268 276 282 287 291 295 299 301 305
194 203 205 203 201 203 208 208 211 215 216 208 203 200 200 201 196 191 181 180 182 188 187 181 177 188 202 213 220 227 238 252 261 273 283 290 294 296 298 300 298 301 307
200 202 206 198 197 204 211 213 211 209 204 203 201 198 193 189 187 191 187 187 193 198 197 198 199 199 202 210 221 233 249 264 278 284 289 293 293 294 295 295 300 306 309
196 197 197 192 190 198 205 217 206 202 203 201 195 190 189 189 191 192 193 195 195 197 200 201 205 208 213 225 238 251 267 277 283 287 290 289 291 294 297 304 308 312 316
194 193 193 191 192 195 198 201 201 200 197 192 188 192 195 190 184 186 187 192 192 209 217 213 220 228 234 245 259 269 274 279 284 291 293 292 294 299 305 309 312 315 316
186 186 187 188 187 190 190 191 194 199 196 189 190 192 190 189 187 184 178 180 193 205 217 224 235 243 252 260 266 270 278 285 294 297 297 299 302 306 311 314 315 316 318